Weather History for Centralia, IL

Change the Weather History Date:

Sunday, February 17, 2013

  Actual Average (KSLO) Record (KSLO)
Temperature  
Mean Temperature 32 °F -  
Max Temperature 44 °F 43 °F 65 °F (1976)
Min Temperature 21 °F 24 °F 3 °F (1980)
Degree Days  
Heating Degree Days 32    
Moisture  
Dew Point 21 °F    
Average Humidity 64    
Maximum Humidity 92    
Minimum Humidity 38    
Precipitation  
Precipitation 0.00 in - - ()
Sea Level Pressure  
Sea Level Pressure 30.13 in    
Wind  
Wind Speed 5 mph (SE)    
Max Wind Speed 14 mph    
Max Gust Speed 20 mph    
Visibility 10 miles    
Events      
Averages and records for this station are not official NWS values.
T = Trace of Precipitation, MM = Missing Value Source: NWS Daily Summary

Daily Weather History Graph

Daily Weather History Graph

Search for Another Location

Airport:

Trip Planner

Search our weather history database for the weather conditions in past years. The results will help you decide how hot, cold, wet, or windy it might be!

Date:

Astronomy

Feb. 17, 2013 Rise Set
Actual Time 6:44 AM CST 5:36 PM CST
Civil Twilight 6:17 AM CST 6:03 PM CST
Nautical Twilight 5:46 AM CST 6:34 PM CST
Astronomical Twilight 5:15 AM CST 7:05 PM CST
Moon 10:43 AM CST (2/17) 12:26 AM CST (2/17)
Length of Visible Light 11h 46m
Length of Day
10h 52m
Waxing Crescent, 49% of the Moon is Illuminated
Feb 17
Waxing Crescent
Feb 17
First Quarter
Feb 25
Full
Mar 4
Last Quarter
Mar 11
New

Hourly Weather History & Observations

Time (CST) Temp. Windchill Dew Point Humidity Pressure Visibility Wind Dir Wind Speed Gust Speed Precip Events Conditions
12:15 AM 25.3 °F - 21.2 °F 84% 30.17 in 10.0 mi Calm Calm - N/A   Clear
12:35 AM 24.3 °F - 20.5 °F 85% 30.18 in 10.0 mi Calm Calm - N/A   Clear
12:55 AM 23.9 °F - 20.8 °F 88% 30.18 in 10.0 mi Calm Calm - N/A   Clear
1:15 AM 23.9 °F - 20.8 °F 88% 30.18 in 10.0 mi Calm Calm - N/A   Clear
1:35 AM 23.7 °F - 20.8 °F 89% 30.18 in 10.0 mi Calm Calm - N/A   Clear
1:55 AM 23.9 °F - 20.3 °F 86% 30.19 in 10.0 mi Calm Calm - N/A   Clear
2:15 AM 23.9 °F - 20.3 °F 86% 30.19 in 10.0 mi Calm Calm - N/A   Clear
2:35 AM 23.0 °F - 20.1 °F 89% 30.18 in 10.0 mi Calm Calm - N/A   Clear
2:55 AM 22.8 °F - 19.4 °F 87% 30.17 in 10.0 mi Calm Calm - N/A   Clear
3:15 AM 22.6 °F - 20.1 °F 90% 30.17 in 10.0 mi Calm Calm - N/A   Clear
3:35 AM 22.1 °F - 19.9 °F 91% 30.18 in 10.0 mi Calm Calm - N/A   Clear
3:55 AM 22.1 °F - 19.9 °F 91% 30.18 in 10.0 mi Calm Calm - N/A   Clear
4:15 AM 22.1 °F - 19.9 °F 91% 30.18 in 10.0 mi Calm Calm - N/A   Clear
4:35 AM 21.9 °F - 19.9 °F 92% 30.19 in 10.0 mi Calm Calm - N/A   Clear
4:55 AM 21.9 °F - 19.9 °F 92% 30.19 in 10.0 mi Calm Calm - N/A   Clear
5:15 AM 21.6 °F - 19.4 °F 91% 30.20 in 10.0 mi Calm Calm - N/A   Clear
5:35 AM 21.2 °F - 19.2 °F 92% 30.20 in 10.0 mi Calm Calm - N/A   Clear
5:55 AM 21.6 °F 16.8 °F 18.5 °F 88% 30.21 in 10.0 mi East 3.5 mph - N/A   Clear
6:15 AM 21.9 °F 17.2 °F 18.1 °F 85% 30.20 in 10.0 mi East 3.5 mph - N/A   Clear
6:35 AM 22.3 °F 16.1 °F 17.8 °F 83% 30.21 in 10.0 mi East 4.6 mph - N/A   Clear
6:55 AM 22.5 °F 15.1 °F 18.0 °F 83% 30.21 in 10.0 mi East 5.8 mph - N/A   Clear
7:15 AM 23.2 °F 17.2 °F 18.3 °F 82% 30.22 in 10.0 mi East 4.6 mph - N/A   Clear
7:35 AM 23.9 °F 16.8 °F 18.7 °F 80% 30.23 in 10.0 mi East 5.8 mph - N/A   Clear
7:55 AM 24.8 °F 16.9 °F 19.2 °F 79% 30.23 in 10.0 mi East 6.9 mph - N/A   Clear
8:15 AM 26.2 °F 17.8 °F 19.6 °F 76% 30.23 in 10.0 mi East 8.1 mph - N/A   Clear
8:35 AM 27.3 °F 18.4 °F 19.4 °F 72% 30.22 in 10.0 mi East 9.2 mph - N/A   Clear
8:55 AM 28.4 °F 21.2 °F 20.3 °F 72% 30.22 in 10.0 mi ESE 6.9 mph - N/A   Clear
9:15 AM 29.7 °F 22.8 °F 21.0 °F 70% 30.22 in 10.0 mi ESE 6.9 mph - N/A   Clear
9:35 AM 30.7 °F 22.6 °F 21.6 °F 69% 30.23 in 10.0 mi SE 9.2 mph - N/A   Clear
9:55 AM 32.0 °F 24.2 °F 21.2 °F 64% 30.23 in 10.0 mi ESE 9.2 mph - N/A   Clear
10:15 AM 32.9 °F 26.7 °F 21.4 °F 63% 30.22 in 10.0 mi ESE 6.9 mph - N/A   Clear
10:35 AM 34.2 °F 27.5 °F 21.2 °F 59% 30.22 in 10.0 mi ESE 8.1 mph - N/A   Mostly Cloudy
10:55 AM 35.2 °F 28.8 °F 21.0 °F 56% 30.22 in 10.0 mi SE 8.1 mph - N/A   Overcast
11:15 AM 36.3 °F 29.5 °F 21.7 °F 56% 30.21 in 10.0 mi ESE 9.2 mph - N/A   Overcast
11:35 AM 37.8 °F 31.8 °F 21.0 °F 51% 30.20 in 10.0 mi SE 8.1 mph - N/A   Unknown
11:55 AM 38.3 °F 32.5 °F 19.9 °F 48% 30.19 in 10.0 mi ESE 8.1 mph - N/A   Mostly Cloudy
12:15 PM 39.4 °F 33.2 °F 21.2 °F 48% 30.18 in 10.0 mi SE 9.2 mph - N/A   Unknown
12:55 PM 41.4 °F 35.2 °F 19.2 °F 41% 30.16 in 10.0 mi SSE 10.4 mph - N/A   Unknown
12:56 PM 41.0 °F 35.8 °F 19.4 °F 42% 30.16 in 10.0 mi SE 8.1 mph - N/A   Unknown
1:15 PM 42.1 °F 35.7 °F 19.4 °F 40% 30.14 in 10.0 mi SE 11.5 mph - N/A   Unknown
1:35 PM 42.1 °F 37.1 °F 19.4 °F 40% 30.13 in 10.0 mi SE 8.1 mph - N/A   Unknown
1:55 PM 43.2 °F 37.4 °F 19.4 °F 39% 30.13 in 10.0 mi South 10.4 mph - N/A   Mostly Cloudy
2:15 PM 42.8 °F 36.6 °F 19.0 °F 39% 30.12 in 10.0 mi SSE 11.5 mph - N/A   Mostly Cloudy
2:35 PM 43.5 °F 37.5 °F 19.8 °F 39% 30.11 in 10.0 mi SE 11.5 mph - N/A   Scattered Clouds
2:55 PM 43.7 °F 36.9 °F 20.5 °F 40% 30.10 in 10.0 mi ESE 13.8 mph - N/A   Clear
3:15 PM 43.9 °F 37.9 °F 20.1 °F 39% 30.10 in 10.0 mi SSE 11.5 mph - N/A   Clear
3:35 PM 44.1 °F 37.7 °F 19.6 °F 38% 30.09 in 10.0 mi SSE 12.7 mph - N/A   Clear
3:55 PM 44.1 °F 38.6 °F 20.7 °F 39% 30.08 in 10.0 mi SE 10.4 mph 18.4 mph N/A   Clear
4:15 PM 43.9 °F 37.5 °F 21.4 °F 41% 30.08 in 10.0 mi SSE 12.7 mph - N/A   Clear
4:35 PM 43.9 °F 37.5 °F 21.9 °F 42% 30.07 in 10.0 mi SE 12.7 mph 19.6 mph N/A   Clear
4:55 PM 43.5 °F 36.7 °F 21.9 °F 42% 30.06 in 10.0 mi ESE 13.8 mph - N/A   Clear
5:15 PM 42.8 °F 37.5 °F 22.1 °F 44% 30.06 in 10.0 mi ESE 9.2 mph - N/A   Clear
5:35 PM 41.4 °F 36.2 °F 23.4 °F 49% 30.05 in 10.0 mi SE 8.1 mph - N/A   Clear
5:55 PM 40.6 °F 36.0 °F 23.9 °F 51% 30.06 in 10.0 mi ESE 6.9 mph - N/A   Clear
6:15 PM 40.1 °F 36.1 °F 23.9 °F 52% 30.05 in 10.0 mi ESE 5.8 mph - N/A   Clear
6:35 PM 39.7 °F 34.3 °F 23.9 °F 53% 30.05 in 10.0 mi ESE 8.1 mph - N/A   Clear
6:55 PM 39.4 °F 32.3 °F 23.7 °F 54% 30.05 in 10.0 mi SE 11.5 mph - N/A   Clear
7:15 PM 39.2 °F 32.5 °F 23.9 °F 54% 30.05 in 10.0 mi SE 10.4 mph - N/A   Clear
7:35 PM 38.3 °F 31.9 °F 24.3 °F 57% 30.06 in 10.0 mi SE 9.2 mph - N/A   Clear
7:55 PM 38.1 °F 32.3 °F 24.3 °F 57% 30.05 in 10.0 mi SE 8.1 mph - N/A   Clear
8:15 PM 38.3 °F 31.9 °F 23.9 °F 56% 30.05 in 10.0 mi SE 9.2 mph - N/A   Clear
8:35 PM 38.7 °F 31.4 °F 23.4 °F 54% 30.05 in 10.0 mi SE 11.5 mph - N/A   Clear
8:55 PM 38.7 °F 32.4 °F 23.4 °F 54% 30.04 in 10.0 mi ESE 9.2 mph - N/A   Clear
9:15 PM 38.3 °F 31.4 °F 23.2 °F 55% 30.04 in 10.0 mi SE 10.4 mph - N/A   Clear
9:35 PM 38.1 °F 32.3 °F 23.4 °F 55% 30.04 in 10.0 mi SE 8.1 mph - N/A   Clear
9:55 PM 37.9 °F 31.5 °F 23.2 °F 55% 30.03 in 10.0 mi SE 9.2 mph - N/A   Clear
10:15 PM 37.6 °F 31.0 °F 23.5 °F 57% 30.02 in 10.0 mi SE 9.2 mph - N/A   Clear
10:35 PM 37.4 °F 30.3 °F 23.5 °F 57% 30.02 in 10.0 mi SE 10.4 mph - N/A   Clear
10:55 PM 37.4 °F 30.8 °F 23.5 °F 57% 30.01 in 10.0 mi SE 9.2 mph - N/A   Clear
11:15 PM 37.4 °F 29.8 °F 23.5 °F 57% 30.00 in 10.0 mi SE 11.5 mph - N/A   Clear
11:35 PM 38.3 °F 30.9 °F 23.2 °F 55% 29.99 in 10.0 mi SE 11.5 mph 17.3 mph N/A   Clear
11:55 PM 38.1 °F 31.2 °F 23.2 °F 55% 29.99 in 10.0 mi SE 10.4 mph - N/A   Clear